Year,Month,Day,Hour,Minute,Value (Times are PST for windspeed in km/hr)
2010,04,25,00,00,1.00
2010,04,25,00,01,0.80
2010,04,25,00,02,6.20
2010,04,25,00,03,3.90
2010,04,25,00,04,0.10
2010,04,25,00,05,2.10
2010,04,25,00,06,4.60
2010,04,25,00,07,1.10
2010,04,25,00,08,0.60
2010,04,25,00,09,0.00
2010,04,25,00,10,0.10
2010,04,25,00,11,4.20
2010,04,25,00,12,2.30
2010,04,25,00,13,3.10
2010,04,25,00,14,1.70
2010,04,25,00,15,3.30
2010,04,25,00,16,2.30
2010,04,25,00,17,2.70
2010,04,25,00,18,1.30
2010,04,25,00,19,2.70
2010,04,25,00,20,0.50
2010,04,25,00,21,4.10
2010,04,25,00,22,4.40
2010,04,25,00,23,3.10
2010,04,25,00,24,0.40
2010,04,25,00,25,4.20
2010,04,25,00,26,1.70
2010,04,25,00,27,1.60
2010,04,25,00,28,0.70
2010,04,25,00,29,1.30
2010,04,25,00,30,0.20
2010,04,25,00,31,0.60
2010,04,25,00,32,3.10
2010,04,25,00,33,5.00
2010,04,25,00,34,1.90
2010,04,25,00,35,0.70
2010,04,25,00,36,1.30
2010,04,25,00,37,3.20
2010,04,25,00,38,3.90
2010,04,25,00,39,1.30
2010,04,25,00,40,2.90
2010,04,25,00,41,1.30
2010,04,25,00,42,1.40
2010,04,25,00,43,4.50
2010,04,25,00,44,1.70
2010,04,25,00,45,3.70
2010,04,25,00,46,6.50
2010,04,25,00,47,4.20
2010,04,25,00,48,3.30
2010,04,25,00,49,4.80
2010,04,25,00,50,4.80
2010,04,25,00,51,2.00
2010,04,25,00,52,2.00
2010,04,25,00,53,5.80
2010,04,25,00,54,2.70
2010,04,25,00,55,1.30
2010,04,25,00,56,0.90
2010,04,25,00,57,0.80
2010,04,25,00,58,5.80
2010,04,25,00,59,1.70
2010,04,25,01,00,3.20
2010,04,25,01,01,0.30
2010,04,25,01,02,1.60
2010,04,25,01,03,3.90
2010,04,25,01,04,1.60
2010,04,25,01,05,7.10
2010,04,25,01,06,2.30
2010,04,25,01,07,3.80
2010,04,25,01,08,1.40
2010,04,25,01,09,1.50
2010,04,25,01,10,1.40
2010,04,25,01,11,1.40
2010,04,25,01,12,6.20
2010,04,25,01,13,6.00
2010,04,25,01,14,5.10
2010,04,25,01,15,5.50
2010,04,25,01,16,0.20
2010,04,25,01,17,2.50
2010,04,25,01,18,3.60
2010,04,25,01,19,3.10
2010,04,25,01,20,4.50
2010,04,25,01,21,2.20
2010,04,25,01,22,1.40
2010,04,25,01,23,1.60
2010,04,25,01,24,0.70
2010,04,25,01,25,1.20
2010,04,25,01,26,0.20
2010,04,25,01,27,0.30
2010,04,25,01,28,2.70
2010,04,25,01,29,3.00
2010,04,25,01,30,0.30
2010,04,25,01,31,1.30
2010,04,25,01,32,0.40
2010,04,25,01,33,0.50
2010,04,25,01,34,0.00
2010,04,25,01,35,0.10
2010,04,25,01,36,2.20
2010,04,25,01,37,1.40
2010,04,25,01,38,2.90
2010,04,25,01,39,0.10
2010,04,25,01,40,0.80
2010,04,25,01,41,0.30
2010,04,25,01,42,0.00
2010,04,25,01,43,0.00
2010,04,25,01,44,0.20
2010,04,25,01,45,2.40
2010,04,25,01,46,2.10
2010,04,25,01,47,2.80
2010,04,25,01,48,0.70
2010,04,25,01,49,1.80
2010,04,25,01,50,1.30
2010,04,25,01,51,3.60
2010,04,25,01,52,3.00
2010,04,25,01,53,4.80
2010,04,25,01,54,6.60
2010,04,25,01,55,3.20
2010,04,25,01,56,4.80
2010,04,25,01,57,3.40
2010,04,25,01,58,6.00
2010,04,25,01,59,4.90
2010,04,25,02,00,4.10
2010,04,25,02,01,5.40
2010,04,25,02,02,8.70
2010,04,25,02,03,7.20
2010,04,25,02,04,6.30
2010,04,25,02,05,7.20
2010,04,25,02,06,5.50
2010,04,25,02,07,6.80
2010,04,25,02,08,4.50
2010,04,25,02,09,5.40
2010,04,25,02,10,4.10
2010,04,25,02,11,6.90
2010,04,25,02,12,6.10
2010,04,25,02,13,7.00
2010,04,25,02,14,4.20
2010,04,25,02,15,6.80
2010,04,25,02,16,6.60
2010,04,25,02,17,1.50
2010,04,25,02,18,3.60
2010,04,25,02,19,4.20
2010,04,25,02,20,5.30
2010,04,25,02,21,3.50
2010,04,25,02,22,5.10
2010,04,25,02,23,3.50
2010,04,25,02,24,4.00
2010,04,25,02,25,4.10
2010,04,25,02,26,6.20
2010,04,25,02,27,2.60
2010,04,25,02,28,0.10
2010,04,25,02,29,0.00
2010,04,25,02,30,0.80
2010,04,25,02,31,4.10
2010,04,25,02,32,0.00
2010,04,25,02,33,0.00
2010,04,25,02,34,0.00
2010,04,25,02,35,0.00
2010,04,25,02,36,0.00
2010,04,25,02,37,0.00
2010,04,25,02,38,0.00
2010,04,25,02,39,0.00
2010,04,25,02,40,2.50
2010,04,25,02,41,0.10
2010,04,25,02,42,1.00
2010,04,25,02,43,0.10
2010,04,25,02,44,0.20
2010,04,25,02,45,0.60
2010,04,25,02,46,1.50
2010,04,25,02,47,4.40
2010,04,25,02,48,3.10
2010,04,25,02,49,0.20
2010,04,25,02,50,0.00
2010,04,25,02,51,0.00
2010,04,25,02,52,0.20
2010,04,25,02,53,0.90
2010,04,25,02,54,0.00
2010,04,25,02,55,0.00
2010,04,25,02,56,0.00
2010,04,25,02,57,0.00
2010,04,25,02,58,0.00
2010,04,25,02,59,0.00
2010,04,25,03,00,0.00
2010,04,25,03,01,0.00
2010,04,25,03,02,0.00
2010,04,25,03,03,0.00
2010,04,25,03,04,0.20
2010,04,25,03,05,0.80
2010,04,25,03,06,0.00
2010,04,25,03,07,0.00
2010,04,25,03,08,0.00
2010,04,25,03,09,0.00
2010,04,25,03,10,0.00
2010,04,25,03,11,0.00
2010,04,25,03,12,0.00
2010,04,25,03,13,0.00
2010,04,25,03,14,0.00
2010,04,25,03,15,0.00
2010,04,25,03,16,0.00
2010,04,25,03,17,0.00
2010,04,25,03,18,0.00
2010,04,25,03,19,0.00
2010,04,25,03,20,0.80
2010,04,25,03,21,0.70
2010,04,25,03,22,0.00
2010,04,25,03,23,0.60
2010,04,25,03,24,0.00
2010,04,25,03,25,0.00
2010,04,25,03,26,0.00
2010,04,25,03,27,0.00
2010,04,25,03,28,0.00
2010,04,25,03,29,0.00
2010,04,25,03,30,0.00
2010,04,25,03,31,0.00
2010,04,25,03,32,0.00
2010,04,25,03,33,0.00
2010,04,25,03,34,0.00
2010,04,25,03,35,0.00
2010,04,25,03,36,0.00
2010,04,25,03,37,0.00
2010,04,25,03,38,0.00
2010,04,25,03,39,0.00
2010,04,25,03,40,0.00
2010,04,25,03,41,0.00
2010,04,25,03,42,0.00
2010,04,25,03,43,0.00
2010,04,25,03,44,0.00
2010,04,25,03,45,0.00
2010,04,25,03,46,0.00
2010,04,25,03,47,0.00
2010,04,25,03,48,0.00
2010,04,25,03,49,0.00
2010,04,25,03,50,0.00
2010,04,25,03,51,0.00
2010,04,25,03,52,0.00
2010,04,25,03,53,0.00
2010,04,25,03,54,0.00
2010,04,25,03,55,0.00
2010,04,25,03,56,0.00
2010,04,25,03,57,0.00
2010,04,25,03,58,0.00
2010,04,25,03,59,0.00
2010,04,25,04,00,0.00
2010,04,25,04,01,0.00
2010,04,25,04,02,0.00
2010,04,25,04,03,0.00
2010,04,25,04,04,0.00
2010,04,25,04,05,0.00
2010,04,25,04,06,0.00
2010,04,25,04,07,0.00
2010,04,25,04,08,0.00
2010,04,25,04,09,0.00
2010,04,25,04,10,0.00
2010,04,25,04,11,0.00
2010,04,25,04,12,0.00
2010,04,25,04,13,0.00
2010,04,25,04,14,0.00
2010,04,25,04,15,0.00
2010,04,25,04,16,0.00
2010,04,25,04,17,0.00
2010,04,25,04,18,0.00
2010,04,25,04,19,0.00
2010,04,25,04,20,0.00
2010,04,25,04,21,0.00
2010,04,25,04,22,0.00
2010,04,25,04,23,0.00
2010,04,25,04,24,0.00
2010,04,25,04,25,0.00
2010,04,25,04,26,0.00
2010,04,25,04,27,0.00
2010,04,25,04,28,0.00
2010,04,25,04,29,0.40
2010,04,25,04,30,1.30
2010,04,25,04,31,2.70
2010,04,25,04,32,2.90
2010,04,25,04,33,2.80
2010,04,25,04,34,0.80
2010,04,25,04,35,1.10
2010,04,25,04,36,0.30
2010,04,25,04,37,0.00
2010,04,25,04,38,0.20
2010,04,25,04,39,0.30
2010,04,25,04,40,0.10
2010,04,25,04,41,0.00
2010,04,25,04,42,0.80
2010,04,25,04,43,0.50
2010,04,25,04,44,0.10
2010,04,25,04,45,0.10
2010,04,25,04,46,0.00
2010,04,25,04,47,1.20
2010,04,25,04,48,2.20
2010,04,25,04,49,2.90
2010,04,25,04,50,4.70
2010,04,25,04,51,4.10
2010,04,25,04,52,0.90
2010,04,25,04,53,1.00
2010,04,25,04,54,1.80
2010,04,25,04,55,2.20
2010,04,25,04,56,1.00
2010,04,25,04,57,0.00
2010,04,25,04,58,0.50
2010,04,25,04,59,0.20
2010,04,25,05,00,0.10
2010,04,25,05,01,0.50
2010,04,25,05,02,0.70
2010,04,25,05,03,0.00
2010,04,25,05,04,0.00
2010,04,25,05,05,0.00
2010,04,25,05,06,0.20
2010,04,25,05,07,0.00
2010,04,25,05,08,0.20
2010,04,25,05,09,0.80
2010,04,25,05,10,0.40
2010,04,25,05,11,0.00
2010,04,25,05,12,1.20
2010,04,25,05,13,0.00
2010,04,25,05,14,1.20
2010,04,25,05,15,3.20
2010,04,25,05,16,1.20
2010,04,25,05,17,0.20
2010,04,25,05,18,0.40
2010,04,25,05,19,0.50
2010,04,25,05,20,0.00
2010,04,25,05,21,0.00
2010,04,25,05,22,0.00
2010,04,25,05,23,0.10
2010,04,25,05,24,0.00
2010,04,25,05,25,0.00
2010,04,25,05,26,0.00
2010,04,25,05,27,0.00
2010,04,25,05,28,0.00
2010,04,25,05,29,1.50
2010,04,25,05,30,0.20
2010,04,25,05,31,0.00
2010,04,25,05,32,0.00
2010,04,25,05,33,0.00
2010,04,25,05,34,0.00
2010,04,25,05,35,0.00
2010,04,25,05,36,0.00
2010,04,25,05,37,0.00
2010,04,25,05,38,0.00
2010,04,25,05,39,0.10
2010,04,25,05,40,0.20
2010,04,25,05,41,0.20
2010,04,25,05,42,0.60
2010,04,25,05,43,0.90
2010,04,25,05,44,0.10
2010,04,25,05,45,1.50
2010,04,25,05,46,1.30
2010,04,25,05,47,1.70
2010,04,25,05,48,0.30
2010,04,25,05,49,0.90
2010,04,25,05,50,1.30
2010,04,25,05,51,3.70
2010,04,25,05,52,0.40
2010,04,25,05,53,1.00
2010,04,25,05,54,0.60
2010,04,25,05,55,1.80
2010,04,25,05,56,3.00
2010,04,25,05,57,2.30
2010,04,25,05,58,2.50
2010,04,25,05,59,4.30
2010,04,25,06,00,3.50
2010,04,25,06,01,2.50
2010,04,25,06,02,0.20
2010,04,25,06,03,0.30
2010,04,25,06,04,0.40
2010,04,25,06,05,0.80
2010,04,25,06,06,1.80
2010,04,25,06,07,2.00
2010,04,25,06,08,2.00
2010,04,25,06,09,1.90
2010,04,25,06,10,0.10
2010,04,25,06,11,0.00
2010,04,25,06,12,0.20
2010,04,25,06,13,0.70
2010,04,25,06,14,0.00
2010,04,25,06,15,0.10
2010,04,25,06,16,0.00
2010,04,25,06,17,0.00
2010,04,25,06,18,0.00
2010,04,25,06,19,0.60
2010,04,25,06,20,0.00
2010,04,25,06,21,0.30
2010,04,25,06,22,1.60
2010,04,25,06,23,1.90
2010,04,25,06,24,0.60
2010,04,25,06,25,0.00
2010,04,25,06,26,0.00
2010,04,25,06,27,0.00
2010,04,25,06,28,0.00
2010,04,25,06,29,0.00
2010,04,25,06,30,0.00
2010,04,25,06,31,1.00
2010,04,25,06,32,0.00
2010,04,25,06,33,0.00
2010,04,25,06,34,0.30
2010,04,25,06,35,0.40
2010,04,25,06,36,1.30
2010,04,25,06,37,2.80
2010,04,25,06,38,0.10
2010,04,25,06,39,0.30
2010,04,25,06,40,0.10
2010,04,25,06,41,1.30
2010,04,25,06,42,0.20
2010,04,25,06,43,0.50
2010,04,25,06,44,1.70
2010,04,25,06,45,0.30
2010,04,25,06,46,1.90
2010,04,25,06,47,3.40
2010,04,25,06,48,2.30
2010,04,25,06,49,0.20
2010,04,25,06,50,0.70
2010,04,25,06,51,1.80
2010,04,25,06,52,1.80
2010,04,25,06,53,0.30
2010,04,25,06,54,1.70
2010,04,25,06,55,0.20
2010,04,25,06,56,0.10
2010,04,25,06,57,2.40
2010,04,25,06,58,3.70
2010,04,25,06,59,2.50
2010,04,25,07,00,2.90
2010,04,25,07,01,1.50
2010,04,25,07,02,1.70
2010,04,25,07,03,3.00
2010,04,25,07,04,2.40
2010,04,25,07,05,2.70
2010,04,25,07,06,1.60
2010,04,25,07,07,2.70
2010,04,25,07,08,2.30
2010,04,25,07,09,3.00
2010,04,25,07,10,1.60
2010,04,25,07,11,1.00
2010,04,25,07,12,4.00
2010,04,25,07,13,3.00
2010,04,25,07,14,2.20
2010,04,25,07,15,0.60
2010,04,25,07,16,1.70
2010,04,25,07,17,3.00
2010,04,25,07,18,4.00
2010,04,25,07,19,2.00
2010,04,25,07,20,1.40
2010,04,25,07,21,0.00
2010,04,25,07,22,1.70
2010,04,25,07,23,1.90
2010,04,25,07,24,0.00
2010,04,25,07,25,0.00
2010,04,25,07,26,0.00
2010,04,25,07,27,0.80
2010,04,25,07,28,3.40
2010,04,25,07,29,2.00
2010,04,25,07,30,2.60
2010,04,25,07,31,6.40
2010,04,25,07,32,5.30
2010,04,25,07,33,4.30
2010,04,25,07,34,4.30
2010,04,25,07,35,3.70
2010,04,25,07,36,2.20
2010,04,25,07,37,0.00
2010,04,25,07,38,0.10
2010,04,25,07,39,1.60
2010,04,25,07,40,0.20
2010,04,25,07,41,0.10
2010,04,25,07,42,1.80
2010,04,25,07,43,2.20
2010,04,25,07,44,4.90
2010,04,25,07,45,5.60
2010,04,25,07,46,3.70
2010,04,25,07,47,3.00
2010,04,25,07,48,1.30
2010,04,25,07,49,4.40
2010,04,25,07,50,4.10
2010,04,25,07,51,8.60
2010,04,25,07,52,6.40
2010,04,25,07,53,5.30
2010,04,25,07,54,7.10
2010,04,25,07,55,5.90
2010,04,25,07,56,5.90
2010,04,25,07,57,7.60
2010,04,25,07,58,5.00
2010,04,25,07,59,4.00
2010,04,25,08,00,6.30
2010,04,25,08,01,5.60
2010,04,25,08,02,4.80
2010,04,25,08,03,6.40
2010,04,25,08,04,2.10
2010,04,25,08,05,5.90
2010,04,25,08,06,8.30
2010,04,25,08,07,7.70
2010,04,25,08,08,3.80
2010,04,25,08,09,8.80
2010,04,25,08,10,3.70
2010,04,25,08,11,6.00
2010,04,25,08,12,8.60
2010,04,25,08,13,5.70
2010,04,25,08,14,6.10
2010,04,25,08,15,6.10
2010,04,25,08,16,9.00
2010,04,25,08,17,9.10
2010,04,25,08,18,6.90
2010,04,25,08,19,8.90
2010,04,25,08,20,9.20
2010,04,25,08,21,4.20
2010,04,25,08,22,7.60
2010,04,25,08,23,7.20
2010,04,25,08,24,8.30
2010,04,25,08,25,7.00
2010,04,25,08,26,4.80
2010,04,25,08,27,6.90
2010,04,25,08,28,8.80
2010,04,25,08,29,9.40
2010,04,25,08,30,6.50
2010,04,25,08,31,9.70
2010,04,25,08,32,10.50
2010,04,25,08,33,4.50
2010,04,25,08,34,8.60
2010,04,25,08,35,7.00
2010,04,25,08,36,8.10
2010,04,25,08,37,8.70
2010,04,25,08,38,6.20
2010,04,25,08,39,12.00
2010,04,25,08,40,6.80
2010,04,25,08,41,7.10
2010,04,25,08,42,6.20
2010,04,25,08,43,9.60
2010,04,25,08,44,6.40
2010,04,25,08,45,9.90
2010,04,25,08,46,9.20
2010,04,25,08,47,8.00
2010,04,25,08,48,4.80
2010,04,25,08,49,5.60
2010,04,25,08,50,5.60
2010,04,25,08,51,10.30
2010,04,25,08,52,6.10
2010,04,25,08,53,4.20
2010,04,25,08,54,1.90
2010,04,25,08,55,1.80
2010,04,25,08,56,4.70
2010,04,25,08,57,10.50
2010,04,25,08,58,10.60
2010,04,25,08,59,12.30
2010,04,25,09,00,6.40
2010,04,25,09,01,3.10
2010,04,25,09,02,5.10
2010,04,25,09,03,5.80
2010,04,25,09,04,8.50
2010,04,25,09,05,7.00
2010,04,25,09,06,5.70
2010,04,25,09,07,9.70
2010,04,25,09,08,7.70
2010,04,25,09,09,4.10
2010,04,25,09,10,5.00
2010,04,25,09,11,9.00
2010,04,25,09,12,8.40
2010,04,25,09,13,2.50
2010,04,25,09,14,8.40
2010,04,25,09,15,10.70
2010,04,25,09,16,9.30
2010,04,25,09,17,9.30
2010,04,25,09,18,5.60
2010,04,25,09,19,5.40
2010,04,25,09,20,7.00
2010,04,25,09,21,3.80
2010,04,25,09,22,8.30
2010,04,25,09,23,7.10
2010,04,25,09,24,7.00
2010,04,25,09,25,11.10
2010,04,25,09,26,9.10
2010,04,25,09,27,8.40
2010,04,25,09,28,8.90
2010,04,25,09,29,11.70
2010,04,25,09,30,13.40
2010,04,25,09,31,8.50
2010,04,25,09,32,13.30
2010,04,25,09,33,8.50
2010,04,25,09,34,11.20
2010,04,25,09,35,9.50
2010,04,25,09,36,10.20
2010,04,25,09,37,15.10
2010,04,25,09,38,14.20
2010,04,25,09,39,11.60
2010,04,25,09,40,9.70
2010,04,25,09,41,11.90
2010,04,25,09,42,9.20
2010,04,25,09,43,11.30
2010,04,25,09,44,11.20
2010,04,25,09,45,9.70
2010,04,25,09,46,4.50
2010,04,25,09,47,6.70
2010,04,25,09,48,5.20
2010,04,25,09,49,14.80
2010,04,25,09,50,12.20
2010,04,25,09,51,6.50
2010,04,25,09,52,5.70
2010,04,25,09,53,8.60
2010,04,25,09,54,8.70
2010,04,25,09,55,9.10
2010,04,25,09,56,6.80
2010,04,25,09,57,9.70
2010,04,25,09,58,9.60
2010,04,25,09,59,8.60
2010,04,25,10,00,6.90
2010,04,25,10,01,7.00
2010,04,25,10,02,5.60
2010,04,25,10,03,5.40
2010,04,25,10,04,2.90
2010,04,25,10,05,6.50
2010,04,25,10,06,8.00
2010,04,25,10,07,8.50
2010,04,25,10,08,10.00
2010,04,25,10,09,8.20
2010,04,25,10,10,4.20
2010,04,25,10,11,7.60
2010,04,25,10,12,7.80
2010,04,25,10,13,6.60
2010,04,25,10,14,9.40
2010,04,25,10,15,9.50
2010,04,25,10,16,8.70
2010,04,25,10,17,9.60
2010,04,25,10,18,11.20
2010,04,25,10,19,6.30
2010,04,25,10,20,8.90
2010,04,25,10,21,8.10
2010,04,25,10,22,10.90
2010,04,25,10,23,6.60
2010,04,25,10,24,5.00
2010,04,25,10,25,4.50
2010,04,25,10,26,6.80
2010,04,25,10,27,7.40
2010,04,25,10,28,3.80
2010,04,25,10,29,5.30
2010,04,25,10,30,3.10
2010,04,25,10,31,9.30
2010,04,25,10,32,3.00
2010,04,25,10,33,8.60
2010,04,25,10,34,5.10
2010,04,25,10,35,5.10
2010,04,25,10,36,8.00
2010,04,25,10,37,6.00
2010,04,25,10,38,3.70
2010,04,25,10,39,6.80
2010,04,25,10,40,8.30
2010,04,25,10,41,6.50
2010,04,25,10,42,6.10
2010,04,25,10,43,5.20
2010,04,25,10,44,8.10
2010,04,25,10,45,5.30
2010,04,25,10,46,7.50
2010,04,25,10,47,10.60
2010,04,25,10,48,9.30
2010,04,25,10,49,3.70
2010,04,25,10,50,8.60
2010,04,25,10,51,5.60
2010,04,25,10,52,6.60
2010,04,25,10,53,10.40
2010,04,25,10,54,11.90
2010,04,25,10,55,6.90
2010,04,25,10,56,6.40
2010,04,25,10,57,8.50
2010,04,25,10,58,8.50
2010,04,25,10,59,5.80
2010,04,25,11,00,5.30
2010,04,25,11,01,6.50
2010,04,25,11,02,7.10
2010,04,25,11,03,8.10
2010,04,25,11,04,7.50
2010,04,25,11,05,6.80
2010,04,25,11,06,9.30
2010,04,25,11,07,6.90
2010,04,25,11,08,13.10
2010,04,25,11,09,8.00
2010,04,25,11,10,3.40
2010,04,25,11,11,7.20
2010,04,25,11,12,5.20
2010,04,25,11,13,5.60
2010,04,25,11,14,9.50
2010,04,25,11,15,9.40
2010,04,25,11,16,10.00
2010,04,25,11,17,7.50
2010,04,25,11,18,9.70
2010,04,25,11,19,12.30
2010,04,25,11,20,10.30
2010,04,25,11,21,7.90
2010,04,25,11,22,9.10
2010,04,25,11,23,8.70
2010,04,25,11,24,8.90
2010,04,25,11,25,10.60
2010,04,25,11,26,9.40
2010,04,25,11,27,5.60
2010,04,25,11,28,5.50
2010,04,25,11,29,6.80
2010,04,25,11,30,7.90
2010,04,25,11,31,14.10
2010,04,25,11,32,12.40
2010,04,25,11,33,5.90
2010,04,25,11,34,2.80
2010,04,25,11,35,11.70
2010,04,25,11,36,9.50
2010,04,25,11,37,6.00
2010,04,25,11,38,9.00
2010,04,25,11,39,10.90
2010,04,25,11,40,8.80
2010,04,25,11,41,5.50
2010,04,25,11,42,4.90
2010,04,25,11,43,11.80
2010,04,25,11,44,16.60
2010,04,25,11,45,14.20
2010,04,25,11,46,8.70
2010,04,25,11,47,6.20
2010,04,25,11,48,10.10
2010,04,25,11,49,6.80
2010,04,25,11,50,11.80
2010,04,25,11,51,7.70
2010,04,25,11,52,17.60
2010,04,25,11,53,15.40
2010,04,25,11,54,15.70
2010,04,25,11,55,5.90
2010,04,25,11,56,6.40
2010,04,25,11,57,13.10
2010,04,25,11,58,11.30
2010,04,25,11,59,15.60
2010,04,25,12,00,10.20
2010,04,25,12,01,11.90
2010,04,25,12,02,14.40
2010,04,25,12,03,7.50
2010,04,25,12,04,5.20
2010,04,25,12,05,9.80
2010,04,25,12,06,8.20
2010,04,25,12,07,11.80
2010,04,25,12,08,10.30
2010,04,25,12,09,6.40
2010,04,25,12,10,10.50
2010,04,25,12,11,11.60
2010,04,25,12,12,16.30
2010,04,25,12,13,13.40
2010,04,25,12,14,12.60
2010,04,25,12,15,12.30
2010,04,25,12,16,8.10
2010,04,25,12,17,7.70
2010,04,25,12,18,5.70
2010,04,25,12,19,6.90
2010,04,25,12,20,6.80
2010,04,25,12,21,11.40
2010,04,25,12,22,11.30
2010,04,25,12,23,11.50
2010,04,25,12,24,10.10
2010,04,25,12,25,14.90
2010,04,25,12,26,12.70
2010,04,25,12,27,9.90
2010,04,25,12,28,12.90
2010,04,25,12,29,7.50
2010,04,25,12,30,11.80
2010,04,25,12,31,9.90
2010,04,25,12,32,6.60
2010,04,25,12,33,7.70
2010,04,25,12,34,5.20
2010,04,25,12,35,6.90
2010,04,25,12,36,6.90
2010,04,25,12,37,5.30
2010,04,25,12,38,7.30
2010,04,25,12,39,13.00
2010,04,25,12,40,10.70
2010,04,25,12,41,8.50
2010,04,25,12,42,8.10
2010,04,25,12,43,8.80
2010,04,25,12,44,7.50
2010,04,25,12,45,7.20
2010,04,25,12,46,10.20
2010,04,25,12,47,8.30
2010,04,25,12,48,10.20
2010,04,25,12,49,8.30
2010,04,25,12,50,7.50
2010,04,25,12,51,8.00
2010,04,25,12,52,9.90
2010,04,25,12,53,14.80
2010,04,25,12,54,16.00
2010,04,25,12,55,11.20
2010,04,25,12,56,12.80
2010,04,25,12,57,8.10
2010,04,25,12,58,6.40
2010,04,25,12,59,7.90
2010,04,25,13,00,6.30
2010,04,25,13,01,9.40
2010,04,25,13,02,6.10
2010,04,25,13,03,9.80
2010,04,25,13,04,8.50
2010,04,25,13,05,11.00
2010,04,25,13,06,9.20
2010,04,25,13,07,4.60
2010,04,25,13,08,8.90
2010,04,25,13,09,10.50
2010,04,25,13,10,10.90
2010,04,25,13,11,8.10
2010,04,25,13,12,9.50
2010,04,25,13,13,6.10
2010,04,25,13,14,3.10
2010,04,25,13,15,4.90
2010,04,25,13,16,10.10
2010,04,25,13,17,15.00
2010,04,25,13,18,9.80
2010,04,25,13,19,13.50
2010,04,25,13,20,12.90
2010,04,25,13,21,13.40
2010,04,25,13,22,11.20
2010,04,25,13,23,9.00
2010,04,25,13,24,6.10
2010,04,25,13,25,4.30
2010,04,25,13,26,9.40
2010,04,25,13,27,9.30
2010,04,25,13,28,9.70
2010,04,25,13,29,8.60
2010,04,25,13,30,6.00
2010,04,25,13,31,7.20
2010,04,25,13,32,5.30
2010,04,25,13,33,7.70
2010,04,25,13,34,7.70
2010,04,25,13,35,11.70
2010,04,25,13,36,8.80
2010,04,25,13,37,9.30
2010,04,25,13,38,12.50
2010,04,25,13,39,11.20
2010,04,25,13,40,8.80
2010,04,25,13,41,10.70
2010,04,25,13,42,8.30
2010,04,25,13,43,7.60
2010,04,25,13,44,3.10
2010,04,25,13,45,6.60
2010,04,25,13,46,11.50
2010,04,25,13,47,12.80
2010,04,25,13,48,8.30
2010,04,25,13,49,4.00
2010,04,25,13,50,10.80
2010,04,25,13,51,12.20
2010,04,25,13,52,14.20
2010,04,25,13,53,4.90
2010,04,25,13,54,1.30
2010,04,25,13,55,12.10
2010,04,25,13,56,11.80
2010,04,25,13,57,11.70
2010,04,25,13,58,11.10
2010,04,25,13,59,4.90
2010,04,25,14,00,3.10
2010,04,25,14,01,2.20
2010,04,25,14,02,6.10
2010,04,25,14,03,7.30
2010,04,25,14,04,6.60
2010,04,25,14,05,4.80
2010,04,25,14,06,5.10
2010,04,25,14,07,3.80
2010,04,25,14,08,10.00
2010,04,25,14,09,6.30
2010,04,25,14,10,5.10
2010,04,25,14,11,12.20
2010,04,25,14,12,8.60
2010,04,25,14,13,5.70
2010,04,25,14,14,10.80
2010,04,25,14,15,8.00
2010,04,25,14,16,14.20
2010,04,25,14,17,10.50
2010,04,25,14,18,10.50
2010,04,25,14,19,12.60
2010,04,25,14,20,10.50
2010,04,25,14,21,12.10
2010,04,25,14,22,8.20
2010,04,25,14,23,5.10
2010,04,25,14,24,7.70
2010,04,25,14,25,11.70
2010,04,25,14,26,4.10
2010,04,25,14,27,5.70
2010,04,25,14,28,8.10
2010,04,25,14,29,5.50
2010,04,25,14,30,6.50
2010,04,25,14,31,6.40
2010,04,25,14,32,5.90
2010,04,25,14,33,5.60
2010,04,25,14,34,5.30
2010,04,25,14,35,7.80
2010,04,25,14,36,14.10
2010,04,25,14,37,12.40
2010,04,25,14,38,6.00
2010,04,25,14,39,7.00
2010,04,25,14,40,11.60
2010,04,25,14,41,7.60
2010,04,25,14,42,3.60
2010,04,25,14,43,8.70
2010,04,25,14,44,10.30
2010,04,25,14,45,9.70
2010,04,25,14,46,8.80
2010,04,25,14,47,12.00
2010,04,25,14,48,6.10
2010,04,25,14,49,4.20
2010,04,25,14,50,3.50
2010,04,25,14,51,3.80
2010,04,25,14,52,8.70
2010,04,25,14,53,12.50
2010,04,25,14,54,12.30
2010,04,25,14,55,9.00
2010,04,25,14,56,6.20
2010,04,25,14,57,10.70
2010,04,25,14,58,9.70
2010,04,25,14,59,4.00
2010,04,25,15,00,2.10
2010,04,25,15,01,6.00
2010,04,25,15,02,3.20
2010,04,25,15,03,13.30
2010,04,25,15,04,11.70
2010,04,25,15,05,10.40
2010,04,25,15,06,6.80
2010,04,25,15,07,5.30
2010,04,25,15,08,9.50
2010,04,25,15,09,5.30
2010,04,25,15,10,6.40
2010,04,25,15,11,5.60
2010,04,25,15,12,5.80
2010,04,25,15,13,2.50
2010,04,25,15,14,3.30
2010,04,25,15,15,2.60
2010,04,25,15,16,1.40
2010,04,25,15,17,2.50
2010,04,25,15,18,5.60
2010,04,25,15,19,4.70
2010,04,25,15,20,3.40
2010,04,25,15,21,2.50
2010,04,25,15,22,2.40
2010,04,25,15,23,6.30
2010,04,25,15,24,8.10
2010,04,25,15,25,10.70
2010,04,25,15,26,4.90
2010,04,25,15,27,6.20
2010,04,25,15,28,8.30
2010,04,25,15,29,5.10
2010,04,25,15,30,1.90
2010,04,25,15,31,2.80
2010,04,25,15,32,9.50
2010,04,25,15,33,5.60
2010,04,25,15,34,3.00
2010,04,25,15,35,6.40
2010,04,25,15,36,5.20
2010,04,25,15,37,7.10
2010,04,25,15,38,4.90
2010,04,25,15,39,5.10
2010,04,25,15,40,1.70
2010,04,25,15,41,5.30
2010,04,25,15,42,6.00
2010,04,25,15,43,7.80
2010,04,25,15,44,5.10
2010,04,25,15,45,4.40
2010,04,25,15,46,5.30
2010,04,25,15,47,1.10
2010,04,25,15,48,0.60
2010,04,25,15,49,6.00
2010,04,25,15,50,2.20
2010,04,25,15,51,7.60
2010,04,25,15,52,5.90
2010,04,25,15,53,5.70
2010,04,25,15,54,5.10
2010,04,25,15,55,2.80
2010,04,25,15,56,6.80
2010,04,25,15,57,5.40
2010,04,25,15,58,9.10
2010,04,25,15,59,3.70
2010,04,25,16,00,6.30
2010,04,25,16,01,1.90
2010,04,25,16,02,0.80
2010,04,25,16,03,0.50
2010,04,25,16,04,2.10
2010,04,25,16,05,4.10
2010,04,25,16,06,8.40
2010,04,25,16,07,3.80
2010,04,25,16,08,2.20
2010,04,25,16,09,4.20
2010,04,25,16,10,1.70
2010,04,25,16,11,4.50
2010,04,25,16,12,3.30
2010,04,25,16,13,4.80
2010,04,25,16,14,3.70
2010,04,25,16,15,3.50
2010,04,25,16,16,5.10
2010,04,25,16,17,2.10
2010,04,25,16,18,3.50
2010,04,25,16,19,4.20
2010,04,25,16,20,3.10
2010,04,25,16,21,0.50
2010,04,25,16,22,0.80
2010,04,25,16,23,5.00
2010,04,25,16,24,4.00
2010,04,25,16,25,3.90
2010,04,25,16,26,3.90
2010,04,25,16,27,1.30
2010,04,25,16,28,0.80
2010,04,25,16,29,3.60
2010,04,25,16,30,2.70
2010,04,25,16,31,3.60
2010,04,25,16,32,2.20
2010,04,25,16,33,0.00
2010,04,25,16,34,4.40
2010,04,25,16,35,4.30
2010,04,25,16,36,3.70
2010,04,25,16,37,4.20
2010,04,25,16,38,4.10
2010,04,25,16,39,2.70
2010,04,25,16,40,4.50
2010,04,25,16,41,4.90
2010,04,25,16,42,7.10
2010,04,25,16,43,8.90
2010,04,25,16,44,7.90
2010,04,25,16,45,3.60
2010,04,25,16,46,5.10
2010,04,25,16,47,6.00
2010,04,25,16,48,6.10
2010,04,25,16,49,3.60
2010,04,25,16,50,4.30
2010,04,25,16,51,5.40
2010,04,25,16,52,1.80
2010,04,25,16,53,7.50
2010,04,25,16,54,8.30
2010,04,25,16,55,5.90
2010,04,25,16,56,1.00
2010,04,25,16,57,3.00
2010,04,25,16,58,2.70
2010,04,25,16,59,7.20
2010,04,25,17,00,5.10
2010,04,25,17,01,2.70
2010,04,25,17,02,4.30
2010,04,25,17,03,2.70
2010,04,25,17,04,4.30
2010,04,25,17,05,3.90
2010,04,25,17,06,2.40
2010,04,25,17,07,4.10
2010,04,25,17,08,2.50
2010,04,25,17,09,4.70
2010,04,25,17,10,4.20
2010,04,25,17,11,8.20
2010,04,25,17,12,2.10
2010,04,25,17,13,2.00
2010,04,25,17,14,4.30
2010,04,25,17,15,4.70
2010,04,25,17,16,4.60
2010,04,25,17,17,0.00
2010,04,25,17,18,1.80
2010,04,25,17,19,4.20
2010,04,25,17,20,2.90
2010,04,25,17,21,2.70
2010,04,25,17,22,5.10
2010,04,25,17,23,5.20
2010,04,25,17,24,5.60
2010,04,25,17,25,7.20
2010,04,25,17,26,5.60
2010,04,25,17,27,7.30
2010,04,25,17,28,7.60
2010,04,25,17,29,2.30
2010,04,25,17,30,0.60
2010,04,25,17,31,0.00
2010,04,25,17,32,0.10
2010,04,25,17,33,2.80
2010,04,25,17,34,5.60
2010,04,25,17,35,5.40
2010,04,25,17,36,6.40
2010,04,25,17,37,4.10
2010,04,25,17,38,3.40
2010,04,25,17,39,6.60
2010,04,25,17,40,3.40
2010,04,25,17,41,1.00
2010,04,25,17,42,7.90
2010,04,25,17,43,9.00
2010,04,25,17,44,5.50
2010,04,25,17,45,3.90
2010,04,25,17,46,6.40
2010,04,25,17,47,2.40
2010,04,25,17,48,1.80
2010,04,25,17,49,2.70
2010,04,25,17,50,0.30
2010,04,25,17,51,1.70
2010,04,25,17,52,1.80
2010,04,25,17,53,7.80
2010,04,25,17,54,3.50
2010,04,25,17,55,2.30
2010,04,25,17,56,3.60
2010,04,25,17,57,4.30
2010,04,25,17,58,2.20
2010,04,25,17,59,1.30
2010,04,25,18,00,2.50
2010,04,25,18,01,4.80